041220 048  0.1-  0.9-    050217 132  1.0+  0.8-    050504 D88  0.8-  0.2-  

041220 048  0.2-  0.7-    050217 726  0.9-  1.0-    050504 D88  1.6-  0.5+  

041220 048  0.2+  0.2-    050217 726 (0.3-  2.1-)   050504 349  0.6+  0.6+  

041220 048  0.3-  0.1+    050217 726  0.6-  1.4-    050504 349  0.4+  0.8+  

041220 048  0.3-  0.9-    050217 726  0.8-  1.8-    050504 349  0.6+  0.5+  

041220 048  0.5-  0.6-    050217 726 (1.0-  4.6-)   050510 704  0.0   0.0   

041221 704  0.5-  0.8-    050217 726 (0.8+  2.1-)   050510 704  0.6+  0.0   

041221 704  0.2-  1.7-    050217 132  0.8+  0.9-    050510 704  0.4+  0.3-  

041221 704  1.1+  0.6+    050217 132  0.8+  0.2-    050510 704  0.4+  0.0   

041221 704  1.2+  1.0-    050217 132  1.0+  1.0-    050510 704  1.4+  0.0   

041221 704  0.2+  0.2-    050218 J78  0.0   0.2+    050511 561 (2.4+  0.1-) 

041221 704  0.9+  1.4-    050226 349  0.2+  0.7-    050511 561 (2.2-  1.1+) 

041221 704  1.8+  0.6+    050226 349  0.5+  0.9-    050511 561  1.2+  0.4-  

041221 704  0.5+  0.2-    050226 349  0.6+  1.0-    050518 J97 (2.9+  0.7+) 

041221 704  0.0   1.7+    050226 213  0.3-  0.3+    050526 048  0.7-  0.0   

041221 704  0.7-  0.7+    050226 213  0.1-  0.2-    050526 048  1.9-  0.8+  

041225 349  1.2+  0.5+    050226 213  0.1-  0.2+    050526 048  0.3+  1.2+  

041225 349  1.4+  0.4+    050228 704  0.5-  1.1+    050526 048 (2.4+  0.7-) 

041225 349  1.4+  0.2+    050228 704  0.6+  0.6-    050526 048  0.4-  0.1-  

041231 349  0.1-  1.0+    050228 704  0.2+  0.3+    050606 703  0.4+  1.0-  

041231 349  0.3-  0.9+    050228 704  0.5+  0.7-    050606 703  0.4-  0.5-  

041231 349  0.4-  1.0+    050228 704 (1.3+  2.7-)   050606 703  0.6-  0.1-  

2005/                     050304 A32  0.5-  0.4-    050606 703  0.2+  0.8-  

050101 213  0.2-  0.1-    050304 A32  0.8-  0.2+    050717 E12  0.7-  0.8-  

050101 213  0.1-  0.3+    050304 A32  0.4-  0.5-    050717 E12  0.2+  1.0-  

050101 213  0.0   0.2-    050304 A32  0.1-  0.0     050717 E12  1.6-  1.6-  

050104 215  0.1+  0.2+    050304 132  1.2-  0.5+    050717 E12  0.1-  0.3-  



NAKANO

         **** Don't distribute anyone except personal use only ****

                (C) Copyright 2005 OAA/ComputingSection

write mail from CFAD0::NAKANO on 2005-11-03 23:34:28(JST).

 



    C/2004 RG113 (LINEAR)                                                 

Epoch 2005 Mar. 11.0 TT = JDT 2453440.5  

T 2005 Mar. 3.71915 TT                                  Nakano

q   1.9423482            (2000.0)            P               Q

z  +0.0014127      Peri.  125.30657     -0.68690097     -0.72457546

 +/-0.0000041      Node     8.77295     +0.48745105     -0.51669089

e   0.9972561      Incl.   21.61827     +0.53903482     -0.45609311

From 179 observations 2004 Aug. 19-2005 Jan. 30, mean residual 0".58.

   (1/a)org.= +0.001737, (1/a)fut.= +0.002968 (+/-0.000004), Q= 6.



NAKANO

         **** Don't distribute anyone except personal use only ****

                (C) Copyright 2005 OAA/ComputingSection

write mail from CFAD0::NAKANO on 2005-02-04 04:54:56(JST).

 



    C/2004 RG113 (LINEAR)                                                 

Epoch 2005 Mar. 11.0 TT = JDT 2453440.5  

T 2005 Mar. 3.71845 TT                                  Nakano

q   1.9423666            (2000.0)            P               Q

z  +0.0013978      Peri.  125.30531     -0.68689486     -0.72458080

 +/-0.0000100      Node     8.77381     +0.48745148     -0.51668912

e   0.9972849      Incl.   21.61842     +0.53904221     -0.45608663

From 130 observations 2004 Aug. 19-Dec. 25, mean residual 0".59.

   (1/a)org.= +0.001723, (1/a)fut.= +0.002953 (+/-0.000010), Q= 6.



NAKANO

         **** Don't distribute anyone except personal use only ****

                (C) Copyright 2005 OAA/ComputingSection

write mail from CFAD0::NAKANO on 2005-01-04 01:58:32(JST).

 

◎C/2004 RG113の軌道と予報位置です



  上尾の門田健一氏の12月25日の観測によると,彗星のCCD全光度は16.3等

でした.



    C/2004 RG113 (LINEAR)                                                 

Epoch 2005 Mar. 11.0 TT = JDT 2453440.5  

T 2005 Mar. 3.71845 TT                                  Nakano

q   1.9423666            (2000.0)            P               Q

z  +0.0013978      Peri.  125.30531     -0.68689486     -0.72458080

 +/-0.0000100      Node     8.77381     +0.48745148     -0.51668912

e   0.9972849      Incl.   21.61842     +0.53904221     -0.45608663

From 130 observations 2004 Aug. 19-Dec. 25, mean residual 0".59.

   (1/a)org.= +0.001723, (1/a)fut.= +0.002953 (+/-0.000010), Q= 6.

 

Date/        TT  R.A.(2000) Decl.     Delta   r     Daily motion  Mag.  Moon Age

              h    h  m       。  ,                      ,  / PA 。  m1      。

2005 Jan.  1 12  07 55.27  +60 16.1   1.225  2.082     4.5 / 339  16.6   63  .72

           2 12  07 55.05  +60 20.3   1.219  2.078     4.2 / 334  16.6   73  .62

           3 12  07 54.80  +60 24.1   1.214  2.074     3.9 / 329  16.6   83  .52

           4 12  07 54.52  +60 27.4   1.210  2.069     3.7 / 323  16.6   94  .42

           5 12  07 54.22  +60 30.3   1.205  2.065     3.4 / 316  16.6  105  .32

           6 12  07 53.90  +60 32.8   1.201  2.061     3.3 / 308  16.5  116  .22

           7 12  07 53.55  +60 34.8   1.197  2.057     3.1 / 300  16.5  127  .13

           8 12  07 53.18  +60 36.3   1.193  2.053     3.0 / 290  16.5  137  .06

           9 12  07 52.79  +60 37.4   1.189  2.049     3.0 / 281  16.5  144  .02

          10 12  07 52.39  +60 38.0   1.185  2.045     3.1 / 271  16.5  146  .00

          11 12  07 51.97  +60 38.0   1.181  2.042     3.2 / 262  16.5  142  .02

          12 12  07 51.54  +60 37.6   1.178  2.038     3.3 / 254  16.4  134  .06

          13 12  07 51.11  +60 36.7   1.175  2.034     3.6 / 246  16.4  124  .13

          14 12  07 50.67  +60 35.2   1.172  2.031     3.8 / 239  16.4  113  .22

          15 12  07 50.22  +60 33.3   1.169  2.027     4.1 / 233  16.4  102  .31

          16 12  07 49.78  +60 30.8   1.166  2.024     4.5 / 227  16.4   91  .42

          17 12  07 49.33  +60 27.7   1.164  2.020     4.8 / 223  16.4   80  .52

          18 12  07 48.89  +60 24.2   1.162  2.017     5.2 / 218  16.4   69  .62

          19 12  07 48.46  +60 20.1   1.159  2.014     5.6 / 214  16.4   60  .71

          20 12  07 48.04  +60 15.5   1.157  2.010     6.0 / 211  16.4   51  .80

          21 12  07 47.62  +60 10.3   1.155  2.007     6.4 / 208  16.3   43  .87

          22 12  07 47.22  +60 04.6   1.154  2.004     6.9 / 205  16.3   37  .92

          23 12  07 46.84  +59 58.4   1.152  2.001     7.3 / 202  16.3   33  .96

          24 12  07 46.47  +59 51.7   1.151  1.998     7.7 / 200  16.3   34  .99

          25 12  07 46.13  +59 44.4   1.150  1.996     8.2 / 198  16.3   37 1.00

          26 12  07 45.80  +59 36.6   1.149  1.993     8.6 / 195  16.3   44  .99

          27 12  07 45.50  +59 28.2   1.148  1.990     9.1 / 193  16.3   52  .96

          28 12  07 45.22  +59 19.4   1.147  1.987     9.6 / 192  16.3   61  .91

          29 12  07 44.97  +59 10.0   1.147  1.985    10.0 / 190  16.3   71  .85

          30 12  07 44.75  +59 00.1   1.146  1.982    10.5 / 188  16.3   81  .78

          31 12  07 44.56  +58 49.7   1.146  1.980    11.0 / 187  16.3   92  .69

     Feb.  1 12  07 44.40  +58 38.8   1.146  1.978    11.4 / 185  16.3  103  .59

NAKANO

         **** Don't distribute anyone except personal use only ****

                (C) Copyright 2005 OAA/ComputingSection

write mail from CFAD0::NAKANO on 2005-01-03 03:10:56(JST).

 

    C/2004 RG113 (LINEAR)                                                 

Epoch 2005 Mar. 11.0 TT = JDT 2453440.5  

T 2005 Mar. 3.72155 TT                                  Nakano

q   1.9423129            (2000.0)            P               Q

z  +0.0014317      Peri.  125.30869     -0.68691979     -0.72455800

 +/-0.0000241      Node     8.77225     +0.48744129     -0.51670192

e   0.9972192      Incl.   21.61811     +0.53901966     -0.45610837

From 77 observations 2004 Aug. 19-Dec. 1, mean residual 0".52.

   (1/a)org.= +0.001756, (1/a)fut.= +0.002987 (+/-0.000024), Q= 6.



NAKANO

         **** Don't distribute anyone except personal use only ****

                (C) Copyright 2004 OAA/ComputingSection

write mail from CFAD0::NAKANO on 2004-12-09 01:41:38(JST).

 

戻ります。